Regional Weather Roundup
Issued by NWS

Home | Current Version | Previous Version | Graphics & Text | Print | Product List | Glossary On
Versions: 1 2 3 4 5 6 7 8 9 10 11 12 13 14 15 16 17 18 19 20 21 22 23 24 25 26 27 28 29 30 31 32 33 34 35 36 37 38 39 40 41 42 43 44 45 46 47 48 49 50
000
ASUS45 KTFX 041019
RWRMT
MONTANA REGIONAL WEATHER ROUNDUP
NATIONAL WEATHER SERVICE GREAT FALLS MT
400 AM MDT FRI SEP 04 2015

NOTE: "FAIR" INDICATES FEW OR NO CLOUDS BELOW 12000 FEET WITH NO
SIGNIFICANT WEATHER AND/OR OBSTRUCTIONS TO VISIBILITY.

MTZ001>007-043-041100-
WEST OF THE DIVIDE

CITY           SKY/WX    TMP DP  RH WIND       PRES   REMARKS
KALISPELL      LGT RAIN  48  47  96 CALM      29.97S
MISSOULA         N/A     41  39  93 CALM      29.99R
BUTTE          CLOUDY    43  41  93 NW3       29.98R
MULLAN PASS      N/A     38  33  82 CALM      29.98F
DEER LODGE       N/A     45  45 100 N3        30.01R
EUREKA           N/A     46  45  93 CALM      30.01S
HAMILTON         N/A     46  46 100 VRB2      29.95F VSB 1/2
LIBBY            N/A     46  43  87 CALM      29.98S
PLAINS           N/A     44  39  82 CALM      29.98S
RONAN            N/A     44  42  93 CALM      30.01S
THOMPSON FALLS   N/A     40  37  89 CALM      30.02S
$$

MTZ008-052>055-041100-
SOUTHWEST MONTANA

CITY           SKY/WX    TMP DP  RH WIND       PRES   REMARKS
BOZEMAN        CLOUDY    50  47  89 SE7       29.94F
DILLON           N/A     46  42  86 NW5       29.94S
W YELLOWSTONE  PTCLDY    41  41 100 W3        29.96S
THREE FORKS      N/A     51  51 100 CALM      29.96F
TWIN BRIDGES     N/A     49  41  74 N13       29.93F
$$

MTZ009-010-012-014-046-048-049-054-041100-
EAST SLOPES AND CENTRAL MONTANA

CITY           SKY/WX    TMP DP  RH WIND       PRES   REMARKS
CUT BANK       CLOUDY    48  46  93 SE8       29.98F
GREAT FALLS    CLOUDY    49  48  97 E22       29.94F
MALMSTROM AFB  LGT RAIN  49  49  99 E13       29.98F
HELENA         CLOUDY    49  47  93 W7        29.93F
CONRAD           N/A     49  49 100 CALM      30.00F
$$

MTZ011-013-016-021-045-047-050-051-041100-
NORTH CENTRAL MONTANA

CITY           SKY/WX    TMP DP  RH WIND       PRES   REMARKS
HAVRE          CLOUDY    51  48  89 E5        30.01R
LEWISTOWN      MOCLDY    49  46  90 W7        30.00R
N BAR RANCH      N/A     50  43  76 NW13G20   29.98R
CHINOOK          N/A     52  48  87 NW3       30.00S
FORT BENTON      N/A     52  50  93 E3        29.99F
$$

MTZ017>020-022>027-061-062-041100-
NORTHEAST MONTANA

CITY           SKY/WX    TMP DP  RH WIND       PRES   REMARKS
GLASGOW        PTCLDY    57  40  52 N14G22    29.86R
JORDAN           N/A     58  39  49 W15       29.94R
SIDNEY         CLOUDY    64  45  48 NE16G23     N/A
WOLF POINT     MOCLDY    58  46  64 NE10      29.80S
MALTA            N/A     56  32  40 N3        29.92R
PLENTYWOOD       N/A     55  48  76 NE18G28   29.82F
POPLAR           N/A     59  46  63 N20G25    29.77F
SCOBEY           N/A     54  38  54 N12       29.87S
$$

MTZ028>42-056>058-041100-
SOUTHCENTRAL AND SOUTHEAST MONTANA

CITY           SKY/WX    TMP DP  RH WIND       PRES   REMARKS
BAKER          LGT RAIN  66  59  78 SE13      29.78R
BILLINGS       MOCLDY    53  46  77 N3        29.91R
LIVINGSTON     PTCLDY    50  45  83 NW8       29.95F
MILES CITY     CLOUDY    60  51  72 NW18G29   29.85R
EKALAKA          N/A     66  58  75 E8        29.80R
FORSYTH          N/A     61  43  51 W5        29.84F
LAUREL           N/A     52  46  79 CALM      29.92R
ROUNDUP          N/A     52  44  74 N3        29.84R
$$

REGIONAL REPORTS...DAKOTAS

CITY           SKY/WX    TMP DP  RH WIND       PRES   REMARKS
WILLISTON      CLOUDY    63  45  51 N18G25    29.82S
MINOT          CLOUDY    68  63  84 NW13      29.75S
DICKINSON      CLOUDY    66  57  72 N17G28    29.74F
BEACH            N/A     63  55  77 N7        29.77R
CROSBY         CLOUDY    59  46  63 NW15      29.88R
BISMARCK         N/A     73  71  93 SE8       29.70F
GRAND FORKS    MOCLDY    73  72  94 SE13      29.77S
FARGO          CLEAR     76  71  85 SE12      29.77S
BUFFALO SD       N/A     64  58  80 NW6       29.72R
RAPID CITY     MOCLDY    68  52  56 SW9       29.78S
$$

REGIONAL REPORTS...WYOMING/IDAHO/WASHINGTON

CITY           SKY/WX    TMP DP  RH WIND       PRES   REMARKS
GILLETTE       CLEAR     55  42  61 SW6       29.84F
SHERIDAN       CLEAR     59  45  59 NW15      29.88R
BUFFALO WY     CLEAR     61  40  45 NW13G23   29.92R
CODY           PTCLDY    52  45  76 NE12      29.92S
YELLOWSTONE LA   N/A     40  38  93 NW5       30.04S
IDAHO FALLS    MOCLDY    54  41  61 S15       29.86S
SALMON         CLOUDY    48  46  93 SW3       29.94S
BOISE            N/A     54  41  61 W5        29.85S
SPOKANE          N/A     48  37  65 NE5       29.95S
$$

REGIONAL REPORTS...ALBERTA

CITY           SKY/WX    TMP DP  RH WIND       PRES   REMARKS
EDMONTON       CLOUDY    45  37  76 CALM      30.11R
CALGARY        MOCLDY    39  36  87 N15G23    30.04S WCI  31
LETHBRIDGE     MOCLDY    45  43  93 W3        29.97F
MEDICINE HAT   LGT RAIN  52  48  87 E5        30.00R
WATERTON GATE    N/A     45  39  81 S6          N/A
MILK RIVER       N/A     48  46  93 S8          N/A
ONEFOUR          N/A     48  48 100 E9          N/A
$$

REGIONAL REPORTS...SASKATCHEWAN

CITY           SKY/WX    TMP DP  RH WIND       PRES   REMARKS
SWIFT CURRENT  CLOUDY    48  45  87 NE7       29.98F
REGINA         CLOUDY    54  48  82 NE9       29.95R
SASKATOON      CLOUDY    50  45  81 NE8       30.03F
CYPRESS HILLS    N/A     45  43  93 NE3         N/A
VAL MARIE        N/A     52  36  54 NE23G30     N/A
ROCKGLEN         N/A     48  41  76 NW16G22     N/A
ASSINIBOIA       N/A     37  37 100 N6          N/A
$$


USA.gov is the U.S. government's official web portal to all federal, state and local government web resources and services.